| time (UTC) | temp F | wind direction | speed knots | gust knots | rain 1hr in | rain 24hr in | rain mn in | humidity % | barometer mb |
| 20260505065055 | 58 | 251 | 0.0 | 0.0 | 0.00 | 0.00 | 0.00 | 79 | 1012.1 |
| 20260505064551 | 58 | 249 | 0.0 | 0.0 | 0.00 | 0.00 | 0.00 | 79 | 1012.0 |
| 20260505064050 | 57 | 241 | 0.0 | 0.0 | 0.00 | 0.00 | 0.00 | 80 | 1012.1 |
| 20260505063547 | 57 | 247 | 0.0 | 0.0 | 0.00 | 0.00 | 0.00 | 80 | 1012.0 |
| 20260505063042 | 57 | 250 | 0.0 | 0.0 | 0.00 | 0.00 | 0.00 | 80 | 1011.8 |
| 20260505062539 | 57 | 251 | 0.0 | 0.0 | 0.00 | 0.00 | 0.00 | 79 | 1012.0 |
| 20260505062036 | 57 | 251 | 0.0 | 0.0 | 0.00 | 0.00 | 0.00 | 79 | 1012.1 |
| 20260505061534 | 57 | 250 | 0.0 | 0.0 | 0.00 | 0.00 | 0.00 | 78 | 1012.0 |
| 20260505061032 | 57 | 250 | 0.0 | 0.0 | 0.00 | 0.00 | 0.00 | 78 | 1011.9 |
| 20260505060529 | 57 | 251 | 0.0 | 0.0 | 0.00 | 0.00 | 0.00 | 78 | 1012.0 |
| 20260505060026 | 58 | 251 | 0.0 | 0.0 | 0.00 | 0.00 | 0.00 | 77 | 1012.0 |
| 20260505055521 | 58 | 250 | 0.0 | 0.0 | 0.00 | 0.00 | 0.00 | 77 | 1012.0 |
| 20260505055018 | 58 | 250 | 0.0 | 0.0 | 0.00 | 0.00 | 0.00 | 77 | 1012.2 |
| 20260505054515 | 58 | 251 | 0.0 | 0.0 | 0.00 | 0.00 | 0.00 | 76 | 1012.0 |
| 20260505054013 | 58 | 249 | 0.0 | 0.0 | 0.00 | 0.00 | 0.00 | 76 | 1012.1 |
| 20260505053510 | 58 | 243 | 0.0 | 0.0 | 0.00 | 0.00 | 0.00 | 76 | 1012.1 |
| 20260505053007 | 58 | 250 | 0.0 | 0.0 | 0.00 | 0.00 | 0.00 | 76 | 1012.3 |
| 20260505052504 | 58 | 246 | 0.0 | 0.0 | 0.00 | 0.00 | 0.00 | 76 | 1012.2 |
| 20260505052001 | 58 | 249 | 0.0 | 0.0 | 0.00 | 0.00 | 0.00 | 75 | 1012.1 |
| 20260505051458 | 58 | 249 | 0.0 | 0.0 | 0.00 | 0.00 | 0.00 | 75 | 1012.0 |
| 20260505050956 | 58 | 250 | 0.0 | 0.0 | 0.00 | 0.00 | 0.00 | 75 | 1012.2 |
| 20260505050454 | 58 | 252 | 0.0 | 0.0 | 0.00 | 0.00 | 0.00 | 74 | 1012.3 |
| 20260505041503 | 60 | 237 | 0.0 | 1.7 | 0.00 | 0.00 | 0.00 | 70 | 1012.7 |
| 20260505041421 | 60 | 246 | 0.0 | 0.9 | 0.00 | 0.00 | 0.00 | 70 | 1011.8 |
| 20260505041024 | 60 | 0 | 0.0 | 0.0 | 0.00 | 0.00 | 0.00 | 69 | 1012.8 |
| 20260505040918 | 60 | 249 | 0.0 | 0.0 | 0.00 | 0.00 | 0.00 | 69 | 1012.0 |
| 20260505040503 | 60 | 0 | 0.0 | 0.0 | 0.00 | 0.00 | 0.00 | 69 | 1012.7 |
| 20260505040416 | 60 | 246 | 0.0 | 0.0 | 0.00 | 0.00 | 0.00 | 69 | 1012.2 |
| 20260505040005 | 60 | 0 | 0.0 | 0.0 | 0.00 | 0.00 | 0.00 | 68 | 1012.9 |
| 20260505035913 | 60 | 249 | 0.0 | 0.0 | 0.00 | 0.00 | 0.00 | 68 | 1012.1 |
| 20260505035524 | 60 | 0 | 0.0 | 0.0 | 0.00 | 0.00 | 0.00 | 67 | 1013.0 |
| 20260505035409 | 60 | 248 | 0.0 | 0.0 | 0.00 | 0.00 | 0.00 | 67 | 1012.0 |
| 20260505035003 | 60 | 0 | 0.0 | 0.0 | 0.00 | 0.00 | 0.00 | 66 | 1012.9 |
| 20260505034906 | 60 | 251 | 0.0 | 0.0 | 0.00 | 0.00 | 0.00 | 66 | 1011.8 |
| 20260505034503 | 60 | 0 | 0.0 | 0.0 | 0.00 | 0.00 | 0.00 | 66 | 1012.8 |
| 20260505034402 | 60 | 248 | 0.0 | 0.0 | 0.00 | 0.00 | 0.00 | 65 | 1012.0 |
| 20260505034003 | 60 | 0 | 0.0 | 0.0 | 0.00 | 0.00 | 0.00 | 65 | 1012.9 |
| 20260505033900 | 60 | 251 | 0.0 | 0.0 | 0.00 | 0.00 | 0.00 | 65 | 1012.0 |
| 20260505033503 | 61 | 0 | 0.0 | 0.0 | 0.00 | 0.00 | 0.00 | 64 | 1013.0 |
| 20260505033356 | 61 | 246 | 0.0 | 0.0 | 0.00 | 0.00 | 0.00 | 64 | 1011.8 |
| 20260505033003 | 61 | 0 | 0.0 | 0.0 | 0.00 | 0.00 | 0.00 | 63 | 1012.9 |
| 20260505032855 | 61 | 251 | 0.0 | 0.0 | 0.00 | 0.00 | 0.00 | 63 | 1012.2 |
| 20260505032503 | 61 | 0 | 0.0 | 0.0 | 0.00 | 0.00 | 0.00 | 63 | 1013.0 |
| 20260505032351 | 61 | 248 | 0.0 | 0.0 | 0.00 | 0.00 | 0.00 | 63 | 1012.0 |
| 20260505032003 | 61 | 244 | 0.0 | 1.7 | 0.00 | 0.00 | 0.00 | 63 | 1013.2 |
| 20260505031848 | 61 | 248 | 0.0 | 0.0 | 0.00 | 0.00 | 0.00 | 63 | 1012.2 |
| 20260505031503 | 61 | 248 | 0.0 | 1.7 | 0.00 | 0.00 | 0.00 | 62 | 1012.8 |
| 20260505031344 | 61 | 226 | 0.9 | 0.9 | 0.00 | 0.00 | 0.00 | 63 | 1012.0 |
| 20260505031003 | 61 | 248 | 0.0 | 1.7 | 0.00 | 0.00 | 0.00 | 63 | 1012.9 |
| 20260505030842 | 61 | 252 | 0.9 | 0.9 | 0.00 | 0.00 | 0.00 | 63 | 1012.1 |
| 20260505030503 | 60 | 245 | 0.0 | 1.7 | 0.00 | 0.00 | 0.00 | 64 | 1012.9 |
| 20260505030337 | 60 | 249 | 0.0 | 0.0 | 0.00 | 0.00 | 0.00 | 65 | 1012.0 |
| 20260505030024 | 60 | 0 | 0.0 | 0.0 | 0.00 | 0.00 | 0.00 | 65 | 1012.9 |
| 20260505025833 | 60 | 250 | 0.0 | 0.0 | 0.00 | 0.00 | 0.00 | 66 | 1012.1 |
| 20260505025503 | 60 | 0 | 0.0 | 0.0 | 0.00 | 0.00 | 0.00 | 66 | 1013.0 |
| 20260505025331 | 60 | 247 | 0.0 | 0.0 | 0.00 | 0.00 | 0.00 | 66 | 1012.1 |
| 20260505025024 | 60 | 0 | 0.0 | 0.0 | 0.00 | 0.00 | 0.00 | 66 | 1012.9 |
| 20260505024829 | 60 | 245 | 0.0 | 0.0 | 0.00 | 0.00 | 0.00 | 66 | 1012.1 |
| 20260505024503 | 60 | 0 | 0.0 | 0.0 | 0.00 | 0.00 | 0.00 | 66 | 1013.0 |
| 20260505024327 | 60 | 248 | 0.0 | 0.0 | 0.00 | 0.00 | 0.00 | 65 | 1012.1 |
| 20260505024003 | 61 | 0 | 0.0 | 0.0 | 0.00 | 0.00 | 0.00 | 65 | 1013.2 |
| 20260505023824 | 61 | 248 | 0.0 | 0.0 | 0.00 | 0.00 | 0.00 | 64 | 1012.2 |
| 20260505023503 | 60 | 0 | 0.0 | 0.0 | 0.00 | 0.00 | 0.00 | 64 | 1013.1 |
| 20260505023320 | 60 | 249 | 0.0 | 0.0 | 0.00 | 0.00 | 0.00 | 64 | 1012.3 |
| 20260505023003 | 60 | 0 | 0.0 | 0.0 | 0.00 | 0.00 | 0.00 | 64 | 1013.4 |
| 20260505022818 | 60 | 246 | 0.0 | 0.0 | 0.00 | 0.00 | 0.00 | 64 | 1012.6 |
| 20260505022524 | 61 | 0 | 0.0 | 0.0 | 0.00 | 0.00 | 0.00 | 64 | 1013.1 |
| 20260505022315 | 61 | 250 | 0.0 | 0.0 | 0.00 | 0.00 | 0.00 | 64 | 1012.4 |
| 20260505022024 | 61 | 0 | 0.0 | 0.0 | 0.00 | 0.00 | 0.00 | 63 | 1013.1 |
| 20260505021812 | 61 | 250 | 0.0 | 0.0 | 0.00 | 0.00 | 0.00 | 63 | 1012.2 |
| 20260505021524 | 62 | 0 | 0.0 | 0.0 | 0.00 | 0.00 | 0.00 | 62 | 1013.0 |
| 20260505021309 | 62 | 253 | 0.0 | 0.0 | 0.00 | 0.00 | 0.00 | 62 | 1012.3 |
| 20260505021025 | 62 | 0 | 0.0 | 0.0 | 0.00 | 0.00 | 0.00 | 62 | 1013.1 |
| 20260505020805 | 62 | 250 | 0.0 | 0.0 | 0.00 | 0.00 | 0.00 | 62 | 1012.2 |
| 20260505020503 | 62 | 0 | 0.0 | 0.0 | 0.00 | 0.00 | 0.00 | 61 | 1013.4 |
| 20260505020300 | 62 | 248 | 0.0 | 0.0 | 0.00 | 0.00 | 0.00 | 61 | 1012.2 |
| 20260505020003 | 62 | 0 | 0.0 | 0.0 | 0.00 | 0.00 | 0.00 | 61 | 1013.1 |
| 20260505015757 | 62 | 242 | 0.0 | 0.0 | 0.00 | 0.00 | 0.00 | 61 | 1012.1 |
| 20260505015503 | 62 | 0 | 0.0 | 0.0 | 0.00 | 0.00 | 0.00 | 61 | 1013.1 |
| 20260505015254 | 62 | 256 | 0.0 | 0.0 | 0.00 | 0.00 | 0.00 | 61 | 1012.1 |
| 20260505015003 | 62 | 0 | 0.0 | 0.0 | 0.00 | 0.00 | 0.00 | 61 | 1012.9 |
| 20260505014751 | 62 | 251 | 0.0 | 0.0 | 0.00 | 0.00 | 0.00 | 61 | 1012.2 |
| 20260505014524 | 62 | 0 | 0.0 | 0.0 | 0.00 | 0.00 | 0.00 | 61 | 1012.8 |
| 20260505014249 | 62 | 250 | 0.0 | 0.0 | 0.00 | 0.00 | 0.00 | 61 | 1012.1 |
| 20260505014003 | 62 | 0 | 0.0 | 0.0 | 0.00 | 0.00 | 0.00 | 61 | 1012.9 |
| 20260505013745 | 62 | 245 | 0.0 | 0.0 | 0.00 | 0.00 | 0.00 | 61 | 1011.9 |
| 20260505013503 | 63 | 0 | 0.0 | 0.0 | 0.00 | 0.00 | 0.00 | 61 | 1013.0 |
| 20260505013243 | 63 | 250 | 0.0 | 0.0 | 0.00 | 0.00 | 0.00 | 60 | 1012.0 |
| 20260505013003 | 63 | 0 | 0.0 | 0.0 | 0.00 | 0.00 | 0.00 | 60 | 1012.9 |
| 20260505012741 | 63 | 250 | 0.0 | 0.0 | 0.00 | 0.00 | 0.00 | 60 | 1012.0 |
| 20260505012503 | 63 | 0 | 0.0 | 0.0 | 0.00 | 0.00 | 0.00 | 60 | 1012.8 |
| 20260505012238 | 64 | 250 | 0.0 | 0.0 | 0.00 | 0.00 | 0.00 | 59 | 1011.9 |
| 20260505012024 | 64 | 0 | 0.0 | 0.0 | 0.00 | 0.00 | 0.00 | 59 | 1012.6 |
| 20260505011733 | 64 | 250 | 0.0 | 0.0 | 0.00 | 0.00 | 0.00 | 58 | 1011.9 |
| 20260505011504 | 64 | 0 | 0.0 | 0.0 | 0.00 | 0.00 | 0.00 | 57 | 1012.8 |
| 20260505011231 | 65 | 245 | 0.0 | 0.0 | 0.00 | 0.00 | 0.00 | 56 | 1011.8 |
| 20260505011024 | 65 | 0 | 0.0 | 0.0 | 0.00 | 0.00 | 0.00 | 55 | 1012.6 |
| 20260505010726 | 65 | 245 | 0.0 | 0.0 | 0.00 | 0.00 | 0.00 | 55 | 1011.5 |
| 20260505010503 | 65 | 0 | 0.0 | 0.0 | 0.00 | 0.00 | 0.00 | 54 | 1012.4 |
| 20260505010223 | 66 | 246 | 0.0 | 0.0 | 0.00 | 0.00 | 0.00 | 54 | 1011.7 |
| 20260505010024 | 66 | 235 | 0.0 | 0.9 | 0.00 | 0.00 | 0.00 | 54 | 1012.6 |
| 20260505005719 | 66 | 250 | 0.0 | 0.0 | 0.00 | 0.00 | 0.00 | 52 | 1011.7 |
| 20260505005503 | 66 | 222 | 0.9 | 2.6 | 0.00 | 0.00 | 0.00 | 52 | 1012.6 |
| 20260505005216 | 67 | 249 | 0.0 | 0.9 | 0.00 | 0.00 | 0.00 | 51 | 1011.5 |
| 20260505005024 | 67 | 231 | 0.9 | 2.6 | 0.00 | 0.00 | 0.00 | 51 | 1012.4 |
| 20260505004713 | 67 | 238 | 0.9 | 2.6 | 0.00 | 0.00 | 0.00 | 51 | 1011.6 |
| 20260505004503 | 66 | 243 | 0.9 | 1.7 | 0.00 | 0.00 | 0.00 | 52 | 1012.2 |
| 20260505004210 | 67 | 244 | 0.0 | 0.9 | 0.00 | 0.00 | 0.00 | 51 | 1011.4 |
| 20260505004024 | 67 | 239 | 0.0 | 1.7 | 0.00 | 0.00 | 0.00 | 52 | 1012.4 |
| 20260505003707 | 67 | 234 | 0.0 | 0.9 | 0.00 | 0.00 | 0.00 | 53 | 1011.5 |
| 20260505003503 | 67 | 242 | 0.0 | 1.7 | 0.00 | 0.00 | 0.00 | 52 | 1012.4 |
| 20260505003205 | 67 | 248 | 0.0 | 0.9 | 0.00 | 0.00 | 0.00 | 53 | 1011.5 |
| 20260505003003 | 67 | 238 | 0.0 | 1.7 | 0.00 | 0.00 | 0.00 | 53 | 1012.3 |
| 20260505002700 | 67 | 240 | 0.0 | 1.7 | 0.00 | 0.00 | 0.00 | 52 | 1011.4 |
| 20260505002503 | 67 | 237 | 0.0 | 2.6 | 0.00 | 0.00 | 0.00 | 52 | 1012.2 |
| 20260505002159 | 67 | 251 | 0.9 | 0.9 | 0.00 | 0.00 | 0.00 | 51 | 1011.3 |
| 20260505002003 | 67 | 232 | 0.0 | 2.6 | 0.00 | 0.00 | 0.00 | 51 | 1012.1 |
| 20260505001655 | 68 | 249 | 0.0 | 0.9 | 0.00 | 0.00 | 0.00 | 51 | 1011.3 |
| 20260505001503 | 68 | 229 | 0.9 | 2.6 | 0.00 | 0.00 | 0.00 | 50 | 1012.2 |
| 20260505001153 | 68 | 236 | 0.0 | 0.9 | 0.00 | 0.00 | 0.00 | 50 | 1011.3 |
| 20260505001003 | 68 | 232 | 0.0 | 2.6 | 0.00 | 0.00 | 0.00 | 50 | 1012.3 |
| 20260505000650 | 68 | 235 | 0.0 | 1.7 | 0.00 | 0.00 | 0.00 | 49 | 1011.1 |
| 20260505000524 | 68 | 237 | 0.0 | 1.7 | 0.00 | 0.00 | 0.00 | 49 | 1012.0 |
| 20260505000148 | 69 | 246 | 0.0 | 0.0 | 0.00 | 0.00 | 0.00 | 47 | 1011.1 |
| 20260505000003 | 69 | 232 | 0.0 | 1.7 | 0.00 | 0.00 | 0.00 | 47 | 1012.1 |
| 20260504235644 | 69 | 244 | 0.0 | 0.0 | 0.00 | 0.00 | 0.00 | 46 | 1011.2 |
| 20260504235503 | 69 | 224 | 0.9 | 2.6 | 0.00 | 0.00 | 0.00 | 46 | 1011.8 |
| 20260504235140 | 69 | 230 | 0.9 | 1.7 | 0.00 | 0.00 | 0.00 | 45 | 1011.3 |
| 20260504235003 | 69 | 220 | 0.9 | 2.6 | 0.00 | 0.00 | 0.00 | 45 | 1012.1 |
| 20260504234638 | 70 | 241 | 0.0 | 0.9 | 0.00 | 0.00 | 0.00 | 44 | 1011.2 |
| 20260504234503 | 70 | 241 | 0.0 | 3.5 | 0.00 | 0.00 | 0.00 | 43 | 1012.1 |
| 20260504234135 | 70 | 246 | 0.0 | 0.0 | 0.00 | 0.00 | 0.00 | 43 | 1011.1 |
| 20260504234003 | 70 | 238 | 0.9 | 3.5 | 0.00 | 0.00 | 0.00 | 43 | 1012.2 |
| 20260504233631 | 70 | 245 | 0.9 | 4.3 | 0.00 | 0.00 | 0.00 | 42 | 1010.9 |
| 20260504233503 | 70 | 238 | 0.9 | 2.6 | 0.00 | 0.00 | 0.00 | 42 | 1012.0 |
| 20260504233127 | 71 | 193 | 1.7 | 1.7 | 0.00 | 0.00 | 0.00 | 42 | 1011.2 |
| 20260504233003 | 71 | 241 | 0.9 | 2.6 | 0.00 | 0.00 | 0.00 | 42 | 1011.9 |
| 20260504232625 | 71 | 250 | 0.9 | 0.9 | 0.00 | 0.00 | 0.00 | 42 | 1011.3 |
| 20260504232503 | 71 | 243 | 0.9 | 3.5 | 0.00 | 0.00 | 0.00 | 42 | 1012.1 |
| 20260504232121 | 71 | 248 | 0.9 | 2.6 | 0.00 | 0.00 | 0.00 | 42 | 1011.0 |
| 20260504232003 | 71 | 238 | 0.9 | 6.1 | 0.00 | 0.00 | 0.00 | 43 | 1012.3 |
| 20260504231618 | 71 | 239 | 0.9 | 2.6 | 0.00 | 0.00 | 0.00 | 41 | 1011.2 |
| 20260504231503 | 71 | 234 | 1.7 | 6.1 | 0.00 | 0.00 | 0.00 | 41 | 1011.9 |
| 20260504231114 | 71 | 247 | 0.9 | 1.7 | 0.00 | 0.00 | 0.00 | 41 | 1011.1 |
| 20260504231003 | 71 | 237 | 0.9 | 5.2 | 0.00 | 0.00 | 0.00 | 42 | 1011.8 |
| 20260504230610 | 72 | 293 | 1.7 | 2.6 | 0.00 | 0.00 | 0.00 | 40 | 1011.1 |
| 20260504230503 | 72 | 238 | 0.9 | 2.6 | 0.00 | 0.00 | 0.00 | 41 | 1011.9 |
| 20260504230109 | 72 | 211 | 0.9 | 2.6 | 0.00 | 0.00 | 0.00 | 41 | 1011.0 |
| 20260504230003 | 72 | 236 | 0.9 | 3.5 | 0.00 | 0.00 | 0.00 | 41 | 1011.8 |
| 20260504225607 | 72 | 231 | 0.9 | 1.7 | 0.00 | 0.00 | 0.00 | 41 | 1011.2 |
| 20260504225524 | 72 | 232 | 0.9 | 5.2 | 0.00 | 0.00 | 0.00 | 40 | 1012.0 |
| 20260504225103 | 72 | 242 | 0.9 | 5.2 | 0.00 | 0.00 | 0.00 | 40 | 1011.1 |
| 20260504225024 | 72 | 227 | 1.7 | 5.2 | 0.00 | 0.00 | 0.00 | 40 | 1011.9 |
| 20260504224600 | 72 | 246 | 1.7 | 2.6 | 0.00 | 0.00 | 0.00 | 40 | 1011.0 |
| 20260504224503 | 72 | 218 | 1.7 | 7.0 | 0.00 | 0.00 | 0.00 | 40 | 1011.8 |
| 20260504224057 | 72 | 233 | 0.9 | 7.0 | 0.00 | 0.00 | 0.00 | 39 | 1011.1 |
| 20260504224024 | 72 | 224 | 1.7 | 7.0 | 0.00 | 0.00 | 0.00 | 39 | 1011.8 |
| 20260504223554 | 73 | 270 | 1.7 | 2.6 | 0.00 | 0.00 | 0.00 | 40 | 1011.1 |
| 20260504223503 | 72 | 235 | 1.7 | 6.1 | 0.00 | 0.00 | 0.00 | 40 | 1012.0 |
| 20260504223050 | 73 | 281 | 2.6 | 6.1 | 0.00 | 0.00 | 0.00 | 39 | 1011.2 |
| 20260504223003 | 73 | 233 | 1.7 | 6.1 | 0.00 | 0.00 | 0.00 | 39 | 1012.1 |
| 20260504222547 | 73 | 243 | 0.0 | 1.7 | 0.00 | 0.00 | 0.00 | 39 | 1011.1 |
| 20260504222524 | 73 | 224 | 1.7 | 9.6 | 0.00 | 0.00 | 0.00 | 39 | 1012.0 |
| 20260504222044 | 73 | 208 | 1.7 | 4.3 | 0.00 | 0.00 | 0.00 | 38 | 1011.3 |
| 20260504222003 | 73 | 213 | 2.6 | 12.2 | 0.00 | 0.00 | 0.00 | 38 | 1011.9 |
| 20260504221542 | 74 | 207 | 6.1 | 12.2 | 0.00 | 0.00 | 0.00 | 38 | 1011.0 |
| 20260504221503 | 74 | 228 | 2.6 | 12.2 | 0.00 | 0.00 | 0.00 | 37 | 1012.0 |
| 20260504221038 | 74 | 283 | 1.7 | 2.6 | 0.00 | 0.00 | 0.00 | 38 | 1011.1 |
| 20260504221024 | 74 | 251 | 2.6 | 8.7 | 0.00 | 0.00 | 0.00 | 38 | 1012.1 |
| 20260504220535 | 74 | 249 | 1.7 | 5.2 | 0.00 | 0.00 | 0.00 | 37 | 1011.1 |
| 20260504220503 | 74 | 254 | 3.5 | 9.6 | 0.00 | 0.00 | 0.00 | 37 | 1012.1 |
| 20260504220032 | 74 | 250 | 5.2 | 7.0 | 0.00 | 0.00 | 0.00 | 37 | 1011.1 |
| 20260504220024 | 74 | 250 | 2.6 | 9.6 | 0.00 | 0.00 | 0.00 | 37 | 1012.0 |
| 20260504215528 | 75 | 255 | 6.1 | 7.8 | 0.00 | 0.00 | 0.00 | 36 | 1011.2 |
| 20260504215503 | 75 | 234 | 1.7 | 3.5 | 0.00 | 0.00 | 0.00 | 37 | 1012.1 |
| 20260504215026 | 75 | 263 | 2.6 | 4.3 | 0.00 | 0.00 | 0.00 | 37 | 1011.3 |
| 20260504215003 | 75 | 236 | 2.6 | 13.0 | 0.00 | 0.00 | 0.00 | 37 | 1012.4 |
| 20260504214521 | 74 | 239 | 0.0 | 1.7 | 0.00 | 0.00 | 0.00 | 37 | 1011.3 |
| 20260504214503 | 74 | 241 | 2.6 | 13.0 | 0.00 | 0.00 | 0.00 | 36 | 1012.0 |
| 20260504214018 | 74 | 228 | 8.7 | 13.0 | 0.00 | 0.00 | 0.00 | 35 | 1011.4 |
| 20260504214003 | 74 | 235 | 1.7 | 13.0 | 0.00 | 0.00 | 0.00 | 35 | 1012.1 |
| 20260504213514 | 75 | 281 | 2.6 | 4.3 | 0.00 | 0.00 | 0.00 | 36 | 1011.3 |
| 20260504213503 | 75 | 238 | 2.6 | 11.3 | 0.00 | 0.00 | 0.00 | 36 | 1012.3 |
| 20260504213012 | 74 | 208 | 0.9 | 7.0 | 0.00 | 0.00 | 0.00 | 38 | 1011.4 |
| 20260504213003 | 74 | 242 | 2.6 | 11.3 | 0.00 | 0.00 | 0.00 | 37 | 1012.2 |
| 20260504212507 | 75 | 219 | 1.7 | 5.2 | 0.00 | 0.00 | 0.00 | 37 | 1011.5 |
| 20260504212503 | 75 | 238 | 1.7 | 7.0 | 0.00 | 0.00 | 0.00 | 38 | 1012.1 |
| 20260504212024 | 75 | 232 | 1.7 | 7.0 | 0.00 | 0.00 | 0.00 | 38 | 1012.1 |
| 20260504212005 | 75 | 251 | 0.9 | 4.3 | 0.00 | 0.00 | 0.00 | 38 | 1011.2 |
| 20260504211503 | 74 | 214 | 2.6 | 7.0 | 0.00 | 0.00 | 0.00 | 37 | 1012.2 |
| 20260504211501 | 74 | 243 | 4.3 | 6.1 | 0.00 | 0.00 | 0.00 | 36 | 1011.4 |
| 20260504211024 | 74 | 220 | 1.7 | 7.0 | 0.00 | 0.00 | 0.00 | 38 | 1012.1 |
| 20260504210959 | 75 | 179 | 3.5 | 4.3 | 0.00 | 0.00 | 0.00 | 37 | 1011.1 |
| 20260504210503 | 75 | 247 | 1.7 | 7.8 | 0.00 | 0.00 | 0.00 | 37 | 1012.1 |
| 20260504210456 | 75 | 239 | 1.7 | 2.6 | 0.00 | 0.00 | 0.00 | 37 | 1011.2 |
| 20260504210024 | 75 | 241 | 1.7 | 7.8 | 0.00 | 0.00 | 0.00 | 36 | 1012.0 |
| 20260504205952 | 75 | 260 | 3.5 | 7.8 | 0.00 | 0.00 | 0.00 | 35 | 1011.2 |
| 20260504205503 | 75 | 241 | 2.6 | 8.7 | 0.00 | 0.00 | 0.00 | 37 | 1012.1 |
| 20260504205450 | 75 | 252 | 2.6 | 4.3 | 0.00 | 0.00 | 0.00 | 36 | 1011.0 |
| 20260504205024 | 75 | 244 | 2.6 | 8.7 | 0.00 | 0.00 | 0.00 | 36 | 1012.2 |
| 20260504204948 | 75 | 243 | 1.7 | 5.2 | 0.00 | 0.00 | 0.00 | 36 | 1011.1 |
| 20260504204503 | 76 | 243 | 1.7 | 7.8 | 0.00 | 0.00 | 0.00 | 35 | 1012.4 |
| 20260504204446 | 76 | 246 | 2.6 | 5.2 | 0.00 | 0.00 | 0.00 | 36 | 1011.3 |
| 20260504204024 | 75 | 242 | 2.6 | 12.2 | 0.00 | 0.00 | 0.00 | 36 | 1012.2 |
| 20260504203945 | 75 | 250 | 0.9 | 1.7 | 0.00 | 0.00 | 0.00 | 37 | 1011.2 |
| 20260504203524 | 74 | 241 | 4.3 | 13.9 | 0.00 | 0.00 | 0.00 | 36 | 1012.2 |
| 20260504203442 | 73 | 207 | 1.7 | 5.2 | 0.00 | 0.00 | 0.00 | 36 | 1011.3 |
| 20260504203003 | 74 | 245 | 5.2 | 14.8 | 0.00 | 0.00 | 0.00 | 35 | 1012.2 |
| 20260504202938 | 74 | 201 | 2.6 | 12.2 | 0.00 | 0.00 | 0.00 | 36 | 1011.3 |
| 20260504202503 | 73 | 249 | 6.1 | 14.8 | 0.00 | 0.00 | 0.00 | 35 | 1012.4 |
| 20260504202435 | 73 | 222 | 7.8 | 9.6 | 0.00 | 0.00 | 0.00 | 35 | 1011.5 |
| 20260504201931 | 74 | 274 | 6.1 | 8.7 | 0.00 | 0.00 | 0.00 | 35 | 1011.6 |
| 20260504201429 | 74 | 229 | 6.1 | 12.2 | 0.00 | 0.00 | 0.00 | 36 | 1011.6 |
| 20260504200927 | 74 | 225 | 4.3 | 13.0 | 0.00 | 0.00 | 0.00 | 35 | 1011.7 |
| 20260504200423 | 74 | 265 | 7.8 | 11.3 | 0.00 | 0.00 | 0.00 | 35 | 1011.8 |
| 20260504195920 | 75 | 244 | 4.3 | 7.0 | 0.00 | 0.00 | 0.00 | 35 | 1011.8 |
| 20260504195415 | 73 | 221 | 4.3 | 8.7 | 0.00 | 0.00 | 0.00 | 36 | 1012.1 |
| 20260504194912 | 73 | 178 | 4.3 | 7.8 | 0.00 | 0.00 | 0.00 | 35 | 1012.0 |
| 20260504194408 | 73 | 245 | 3.5 | 6.1 | 0.00 | 0.00 | 0.00 | 37 | 1012.1 |
| 20260504193904 | 74 | 229 | 4.3 | 12.2 | 0.00 | 0.00 | 0.00 | 35 | 1012.0 |
| 20260504193401 | 74 | 247 | 0.9 | 12.2 | 0.00 | 0.00 | 0.00 | 36 | 1012.2 |
| 20260504192900 | 75 | 213 | 1.7 | 7.0 | 0.00 | 0.00 | 0.00 | 35 | 1012.2 |
| 20260504192358 | 74 | 258 | 4.3 | 7.0 | 0.00 | 0.00 | 0.00 | 37 | 1012.4 |
| 20260504191856 | 73 | 247 | 0.9 | 4.3 | 0.00 | 0.00 | 0.00 | 36 | 1012.2 |
| 20260504191353 | 73 | 173 | 3.5 | 5.2 | 0.00 | 0.00 | 0.00 | 36 | 1012.3 |
| 20260504190848 | 73 | 235 | 5.2 | 8.7 | 0.00 | 0.00 | 0.00 | 36 | 1012.5 |
| 20260504190344 | 73 | 249 | 6.1 | 7.8 | 0.00 | 0.00 | 0.00 | 35 | 1012.4 |
| 20260504185841 | 73 | 228 | 1.7 | 11.3 | 0.00 | 0.00 | 0.00 | 37 | 1012.4 |
| 20260504185338 | 74 | 153 | 2.6 | 4.3 | 0.00 | 0.00 | 0.00 | 35 | 1012.4 |
| 20260504184834 | 73 | 242 | 0.9 | 2.6 | 0.00 | 0.00 | 0.00 | 37 | 1012.7 |
| 20260504184331 | 72 | 239 | 1.7 | 9.6 | 0.00 | 0.00 | 0.00 | 36 | 1012.7 |
| 20260504183826 | 72 | 231 | 1.7 | 9.6 | 0.00 | 0.00 | 0.00 | 37 | 1012.8 |
| 20260504183324 | 72 | 226 | 2.6 | 7.0 | 0.00 | 0.00 | 0.00 | 36 | 1012.9 |
| 20260504182822 | 73 | 226 | 3.5 | 6.1 | 0.00 | 0.00 | 0.00 | 35 | 1013.0 |
| 20260504182319 | 72 | 241 | 0.9 | 2.6 | 0.00 | 0.00 | 0.00 | 37 | 1012.9 |
| 20260504181816 | 72 | 254 | 4.3 | 7.8 | 0.00 | 0.00 | 0.00 | 35 | 1013.1 |
| 20260504181313 | 71 | 294 | 5.2 | 7.0 | 0.00 | 0.00 | 0.00 | 35 | 1013.0 |
| 20260504180812 | 71 | 228 | 9.6 | 13.9 | 0.00 | 0.00 | 0.00 | 35 | 1013.4 |
| 20260504180310 | 71 | 232 | 6.1 | 8.7 | 0.00 | 0.00 | 0.00 | 36 | 1013.3 |
| 20260504175808 | 72 | 242 | 2.6 | 8.7 | 0.00 | 0.00 | 0.00 | 35 | 1013.5 |
| 20260504175304 | 72 | 189 | 0.0 | 4.3 | 0.00 | 0.00 | 0.00 | 36 | 1013.4 |
| 20260504174803 | 72 | 247 | 2.6 | 5.2 | 0.00 | 0.00 | 0.00 | 36 | 1013.5 |
| 20260504174300 | 71 | 214 | 1.7 | 4.3 | 0.00 | 0.00 | 0.00 | 36 | 1013.5 |
| 20260504173756 | 72 | 240 | 6.1 | 8.7 | 0.00 | 0.00 | 0.00 | 37 | 1013.6 |
| 20260504173253 | 72 | 202 | 2.6 | 5.2 | 0.00 | 0.00 | 0.00 | 38 | 1013.5 |
| 20260504172750 | 71 | 248 | 2.6 | 11.3 | 0.00 | 0.00 | 0.00 | 36 | 1013.8 |
| 20260504172247 | 72 | 204 | 3.5 | 4.3 | 0.00 | 0.00 | 0.00 | 37 | 1013.7 |
| 20260504171743 | 71 | 273 | 3.5 | 9.6 | 0.00 | 0.00 | 0.00 | 36 | 1013.8 |
| 20260504171240 | 73 | 244 | 3.5 | 5.2 | 0.00 | 0.00 | 0.00 | 35 | 1014.0 |
| 20260504170737 | 72 | 233 | 0.0 | 5.2 | 0.00 | 0.00 | 0.00 | 39 | 1013.7 |
| 20260504170234 | 72 | 273 | 3.5 | 6.1 | 0.00 | 0.00 | 0.00 | 36 | 1014.1 |
| 20260504160153 | 69 | 238 | 0.9 | 2.6 | 0.00 | 0.00 | 0.00 | 41 | 1015.1 |
| 20260504151120 | 68 | 254 | 1.7 | 8.7 | 0.00 | 0.00 | 0.00 | 46 | 1015.1 |
| 20260504150618 | 67 | 275 | 3.5 | 8.7 | 0.00 | 0.00 | 0.00 | 46 | 1015.4 |
| 20260504150115 | 68 | 228 | 1.7 | 4.3 | 0.00 | 0.00 | 0.00 | 46 | 1015.3 |
| 20260504141043 | 63 | 226 | 2.6 | 7.0 | 0.00 | 0.00 | 0.00 | 53 | 1015.5 |
| 20260504141003 | 63 | 253 | 2.6 | 9.6 | 0.00 | 0.00 | 0.00 | 53 | 1016.2 |
| 20260504140540 | 64 | 256 | 6.1 | 8.7 | 0.00 | 0.00 | 0.00 | 53 | 1015.8 |
| 20260504140503 | 63 | 246 | 3.5 | 11.3 | 0.00 | 0.00 | 0.00 | 55 | 1016.4 |
| 20260504130504 | 58 | 252 | 3.5 | 7.8 | 0.00 | 0.00 | 0.00 | 64 | 1016.1 |
| 20260504110503 | 49 | 252 | 0.9 | 3.5 | 0.00 | 0.00 | 0.00 | 80 | 1017.4 |
| 20260504110351 | 49 | 255 | 0.9 | 1.7 | 0.00 | 0.00 | 0.00 | 80 | 1016.3 |
| 20260504100503 | 46 | 257 | 0.0 | 0.9 | 0.00 | 0.00 | 0.00 | 81 | 1017.6 |
| 20260504100308 | 46 | 253 | 0.0 | 0.0 | 0.00 | 0.00 | 0.00 | 81 | 1016.6 |
| 20260504081702 | 46 | 249 | 0.0 | 0.0 | 0.00 | 0.00 | 0.00 | 76 | 1016.8 |
| 20260504081503 | 47 | 250 | 0.9 | 1.7 | 0.00 | 0.00 | 0.00 | 76 | 1017.6 |
| 20260504081158 | 47 | 249 | 0.0 | 1.7 | 0.00 | 0.00 | 0.00 | 76 | 1016.6 |
| 20260504081003 | 47 | 254 | 0.9 | 1.7 | 0.00 | 0.00 | 0.00 | 76 | 1017.3 |
| 20260504080655 | 47 | 268 | 1.7 | 1.7 | 0.00 | 0.00 | 0.00 | 76 | 1016.7 |
| 20260504080503 | 47 | 252 | 0.9 | 1.7 | 0.00 | 0.00 | 0.00 | 76 | 1017.4 |
| 20260504080152 | 47 | 257 | 0.9 | 1.7 | 0.00 | 0.00 | 0.00 | 76 | 1016.7 |
| 20260504070119 | 48 | 251 | 0.9 | 1.7 | 0.00 | 0.00 | 0.00 | 72 | 1016.4 |